Change the Weather History Date:

Sunday, November 17, 2013

  Actual Average Record
Temperature  
Mean Temperature 58 °F 43 °F  
Max Temperature 72 °F 51 °F 75 °F (1958)
Min Temperature 44 °F 34 °F 3 °F (1959)
Degree Days  
Heating Degree Days 7 22  
Month to date heating degree days 341 321  
Since 1 July heating degree days 691 725  
Cooling Degree Days 0 0  
Month to date cooling degree days 0 0  
Year to date cooling degree days 1007 1057  
Growing Degree Days 8 (Base 50)    
Moisture  
Dew Point 56 °F    
Average Humidity 74    
Maximum Humidity 100    
Minimum Humidity 48    
Precipitation  
Precipitation T in 0.12 in 1.19 in (1993)
Month to date precipitation 0.07 2.00  
Year to date precipitation 40.76 33.80  
Sea Level Pressure  
Sea Level Pressure 29.60 in    
Wind  
Wind Speed 18 mph (SW)    
Max Wind Speed 40 mph    
Max Gust Speed 53 mph    
Visibility 10 miles    
Events Rain , Thunderstorm    
T = Trace of Precipitation, MM = Missing Value Source: NWS Daily Summary

Daily Weather History Graph

Daily Weather History Graph

Search for Another Location

Airport or City:

Trip Planner

Search our weather history database for the weather conditions in past years. The results will help you decide how hot, cold, wet, or windy it might be!

Date:

Astronomy

Nov. 17, 2013 Rise Set
Actual Time 6:39 AM CST 4:36 PM CST
Civil Twilight 6:10 AM CST 5:05 PM CST
Nautical Twilight 5:38 AM CST 5:37 PM CST
Astronomical Twilight 5:06 AM CST 6:09 PM CST
Moon 4:53 PM CST (11/17) 6:33 AM CST (11/17)
Length of Visible Light 10h 54m
Length of Day
9h 56m
Full, 100% of the Moon is Illuminated
Nov 17
Full
Nov 25
Last Quarter
Dec 2
New
Dec 9
First Quarter
Dec 17
Full

Hourly Weather History & Observations

Time (CST) Temp. Windchill Dew Point Humidity Pressure Visibility Wind Dir Wind Speed Gust Speed Precip Events Conditions
12:53 AM 61.0 °F - 61.0 °F 100% 29.66 in 10.0 mi SSW 15.0 mph 24.2 mph 0.00 in   Scattered Clouds
1:50 AM 62.6 °F - 62.6 °F 100% 29.65 in 10.0 mi South 11.5 mph 21.9 mph N/A   Mostly Cloudy
1:53 AM 62.1 °F - 62.1 °F 100% 29.64 in 10.0 mi South 13.8 mph - N/A   Overcast
2:10 AM 63.0 °F - 63.0 °F 100% 29.64 in 10.0 mi South 16.1 mph 25.3 mph N/A   Overcast
2:49 AM 62.6 °F - 62.6 °F 100% 29.64 in 10.0 mi South 15.0 mph 24.2 mph N/A   Overcast
2:53 AM 62.1 °F - 62.1 °F 100% 29.63 in 10.0 mi South 13.8 mph 24.2 mph N/A   Overcast
3:53 AM 63.0 °F - 63.0 °F 100% 29.62 in 10.0 mi South 16.1 mph 23.0 mph N/A   Overcast
4:53 AM 63.0 °F - 61.0 °F 93% 29.60 in 10.0 mi South 16.1 mph 26.5 mph N/A   Overcast
5:53 AM 63.0 °F - 61.0 °F 93% 29.57 in 10.0 mi South 16.1 mph 26.5 mph N/A   Overcast
6:53 AM 63.0 °F - 61.0 °F 93% 29.57 in 10.0 mi South 15.0 mph 26.5 mph N/A   Overcast
7:53 AM 64.0 °F - 61.0 °F 90% 29.57 in 10.0 mi South 16.1 mph 31.1 mph N/A   Overcast
8:53 AM 64.9 °F - 62.1 °F 90% 29.55 in 10.0 mi South 17.3 mph 29.9 mph N/A   Overcast
9:53 AM 66.0 °F - 63.0 °F 90% 29.51 in 10.0 mi South 20.7 mph 35.7 mph 0.00 in Rain Light Rain
10:09 AM 66.9 °F - 63.0 °F 87% 29.51 in 10.0 mi South 19.6 mph 33.4 mph 0.00 in   Overcast
10:53 AM 66.9 °F - 63.0 °F 87% 29.47 in 10.0 mi South 18.4 mph 33.4 mph 0.00 in   Overcast
11:53 AM 68.0 °F - 63.0 °F 84% 29.40 in 10.0 mi South 21.9 mph 32.2 mph N/A   Overcast
12:53 PM 68.0 °F - 63.0 °F 84% 29.36 in 10.0 mi SSW 18.4 mph 32.2 mph 0.00 in Rain , Thunderstorm Light Rain
1:08 PM 66.0 °F - 62.1 °F 87% 29.37 in 10.0 mi SSW 25.3 mph 41.4 mph 0.00 in Rain , Thunderstorm Light Thunderstorms and Rain
1:31 PM 71.1 °F - 66.0 °F 84% 29.36 in 10.0 mi SW 18.4 mph 32.2 mph 0.00 in   Mostly Cloudy
1:53 PM 70.0 °F - 66.0 °F 87% 29.39 in 10.0 mi WSW 19.6 mph 31.1 mph 0.00 in   Overcast
2:53 PM 66.9 °F - 45.0 °F 45% 29.50 in 10.0 mi West 32.2 mph 54.1 mph 0.00 in Rain Light Rain
3:53 PM 63.0 °F - 42.1 °F 46% 29.57 in 10.0 mi West 24.2 mph 33.4 mph 0.00 in Rain Light Rain
4:53 PM 55.9 °F - 42.1 °F 60% 29.65 in 10.0 mi WNW 21.9 mph 33.4 mph 0.00 in Rain Light Rain
5:53 PM 53.1 °F - 42.1 °F 66% 29.70 in 10.0 mi WNW 13.8 mph - 0.00 in   Clear
6:53 PM 53.1 °F - 42.1 °F 66% 29.72 in 10.0 mi WNW 13.8 mph 21.9 mph N/A   Scattered Clouds
7:53 PM 51.1 °F - 41.0 °F 68% 29.75 in 10.0 mi WNW 13.8 mph - N/A   Clear
8:53 PM 50.0 °F - 41.0 °F 71% 29.80 in 10.0 mi West 19.6 mph 27.6 mph 0.00 in   Clear
9:53 PM 50.0 °F - 39.9 °F 68% 29.83 in 10.0 mi WNW 17.3 mph 27.6 mph 0.00 in   Clear
10:53 PM 46.0 °F 39.3 °F 39.9 °F 79% 29.88 in 10.0 mi WNW 16.1 mph - N/A   Clear
11:53 PM 44.1 °F 38.6 °F 39.0 °F 82% 29.91 in 10.0 mi West 10.4 mph - N/A   Clear